Regional Weather Roundup
Issued by NWS

Home | Current Version | Previous Version | Graphics & Text | Print | Product List | Glossary On
Versions: 1 2 3 4 5 6 7 8 9 10 11 12 13 14 15 16 17 18 19 20 21 22 23 24 25 26 27 28 29 30 31 32 33 34 35 36 37 38 39 40 41 42 43 44 45 46 47 48 49 50
067
ASUS45 KABQ 272101
RWRNM
NEW MEXICO REGIONAL WEATHER ROUNDUP
NATIONAL WEATHER SERVICE ALBUQUERQUE NM
300 PM MDT SAT MAY 27 2017

NOTE: "FAIR" MEANS FEW OR NO CLOUDS BELOW 12,000 FEET AGL WITH NO
       SIGNIFICANT WEATHER OR OBSTRUCTIONS TO VISION.

      THIS PRODUCT IS RELEASED AS TWO VERSIONS.  ONE VERSION NEAR
      THE TOP OF THE HOUR CONTAINING PRELIMINARY DATA FROM ALBUQUERQUE
      AND OTHER STATIONS.  A FINAL VERSION WITH ADDITIONAL DATA IS
      ISSUED ABOUT 10 MINUTES AFTER THE HOUR.

NMZ501-503-504-510>518-272200-
NORTHWEST PLATEAU/NORTHCENTRAL MOUNTAINS

CITY           SKY/WX    TMP DP  RH WIND       PRES   REMARKS
FARMINGTON     FAIR      74  24  15 W22G33    30.07F
LOS ALAMOS     FAIR      72  13  10 W10G26    30.13S
SANTA FE       FAIR      79  13   8 W17G32    30.06F
TAOS           PTSUNNY   72  19  14 W16G23    30.11S
ANGEL FIRE     FAIR      64  19  17 SW23G33   30.17F

$$
NMZ402-403-502-505>509-272200-
WESTCENTRAL MOUNTAINS/SOUTHWEST MOUNTAINS

CITY           SKY/WX    TMP DP  RH WIND       PRES   REMARKS
GALLUP         FAIR      75  20  12 W15G22    30.14F
GRANTS         FAIR      75  14   9 CALM      30.14S
SILVER CITY    FAIR      81   8   6 W21       30.11F

$$
NMZ407-409-411-412-272200-
SOUTHERN DESERTS

CITY           SKY/WX    TMP DP  RH WIND       PRES   REMARKS
DEMING         FAIR      88  13   6 W16G25    30.03F
LAS CRUCES     FAIR      89  18   7 W12G21    30.04F
HOLLOMAN AFB   FAIR      89  14   6 W15G21    30.02F
ALAMOGORDO     FAIR      88  18   7 SW3G22    30.01F
T OR C         FAIR      90  -1   3 SW17G24   29.99F

$$
NMZ519>523-272200-
CENTRAL VALLEYS/CENTRAL HIGHLANDS

CITY           SKY/WX    TMP DP  RH WIND       PRES   REMARKS
ALBUQUERQUE    FAIR      82   9   6 W17G24    30.04F
MORIARTY ARPT  FAIR      81  18   9 W14G24    30.10F
CLINES CORNERS FAIR      75  16  10 W25G35    30.12F
BELEN          FAIR      84  15   8 W13G24    30.03F
SOCORRO        FAIR      87  14   6 E8        29.99F

$$
NMZ524>526-539-540-272200-
SOUTHCENTRAL MOUNTAINS

CITY           SKY/WX    TMP DP  RH WIND       PRES   REMARKS
RUIDOSO        NOT AVBL

$$
NMZ527>531-272200-
NORTHEAST HIGHLANDS/NORTHEAST PLAINS

CITY           SKY/WX    TMP DP  RH WIND       PRES   REMARKS
LAS VEGAS      FAIR      79  11   7 W25G35    30.04F
RATON          FAIR      75  19  12 W14G24    29.99S
CLAYTON        FAIR      69  51  52 E9        30.01F

$$
NMZ532>537-272200-
EASTCENTRAL PLAINS

CITY           SKY/WX    TMP DP  RH WIND       PRES   REMARKS
SANTA ROSA     FAIR      85  20   9 SW21G28   29.95F
TUCUMCARI      FAIR      90  17   7 W13       29.89F
CANNON AFB     FAIR      88  16   7 SW21G28   29.95F
CLOVIS AIRPORT FAIR      90  27  10 SW13G25   29.95F

$$
NMZ028-029-538-272200-
SOUTHEAST PLAINS

CITY           SKY/WX    TMP DP  RH WIND       PRES   REMARKS
ROSWELL        FAIR      94  12   5 VRB7      29.88F
ARTESIA        FAIR      95  18   6 SW14      29.88F
CARLSBAD       FAIR      95  20   6 W15G29    29.89F
HOBBS          SUNNY     93  16   6 SW9G20    29.93F


$$




USA.gov is the U.S. government's official web portal to all federal, state and local government web resources and services.